Location: Unspecified
(50.1700°N, 6.8600°E)
Time: 15:15:28
(UTC+00:00)

METEOR-M - Pass Details

Date: 24 January 2019
Orbit: 816 x 820 km, 98.4° (Epoch: 18 February)

Event Time Altitude Azimuth Distance (km) Brightness Sun altitude
Rises 06:23:43 0° 10° (N) 3,363 7.2 -8.7°
Reaches altitude 10° 06:26:08 10° 6° (N) 2,426 6.5 -8.3°
Maximum altitude 06:31:17 50° 293° (WNW) 1,042 4.3 -7.5°
Drops below altitude 10° 06:36:25 10° 219° (SW) 2,407 6.4 -6.8°
Sets 06:38:48 0° 214° (SW) 3,335 7.2 -6.4°
